Location: Prairie State College
(41.5244°N, 87.6382°W)
Time: 19:19:04
(UTC-05:00)

Amateur Radio Satellites - All Passes

Search period start: 26 May 2016 18:49
Search period end: 27 May 2016 18:49
Location: Prairie State College, 41.5244°N, 87.6382°W

Satellite Date Start Highest point End Downlink Frequencies (MHz)
Time Altitude Azimuth
DOVE 4 26 May 18:50:50 18:55:52 48° 72° (ENE) 19:00:43 437.250
AUBIESAT-1 26 May 18:52:41 18:55:57 23° 64° (ENE) 18:59:02 437.475
CUTE-I 26 May 18:53:59 18:59:03 45° 261° (W) 19:04:09 437.470
M-CUBED/EXP-1 PRIME 26 May 18:57:47 19:01:33 32° 66° (ENE) 19:05:04 437.505
O/OREOS (USA 219) 26 May 18:58:22 19:02:12 27° 59° (ENE) 19:06:01 437.305
BRITE-PL 26 May 19:03:10 19:08:18 37° 264° (W) 19:13:35 437.365/2234.400
HO-68 26 May 19:14:19 19:20:54 42° 64° (ENE) 19:27:30 435.675
LilacSat-2 26 May 19:25:42 19:28:03 16° 267° (W) 19:30:24 437.200
RS-15 26 May 19:29:57 19:40:58 50° 316° (NW) 19:52:38 29.354- 29.394
CINEMA 3 26 May 19:30:37 19:34:58 36° 71° (ENE) 19:39:08 145.822/145.860
STRAND 1 26 May 19:32:43 19:37:24 34° 97° (E) 19:42:03 437.568
GOMX 1 26 May 19:33:56 19:38:58 37° 264° (W) 19:43:58 467.674
BEESAT 3 26 May 19:36:48 19:39:29 17° 43° (NE) 19:42:10 437.485
NOAA 18 26 May 19:38:43 19:41:55 16° 269° (W) 19:45:08 137.9125
CANX-2 26 May 19:48:05 19:52:10 55° 74° (ENE) 19:56:19 2200.000
Cosmos 2504 26 May 19:49:21 19:54:48 22° 295° (WNW) 20:00:28 435.465 / 435.565
PCSat 26 May 19:49:46 19:55:07 60° 245° (WSW) 20:00:25 145.827
Cubesat XI-IV 26 May 19:49:51 19:52:49 15° 270° (W) 19:55:48 437.490
SEEDS 26 May 19:53:18 19:57:10 39° 72° (ENE) 20:01:05 437.485
CUTE 1.7 + AOD 2 26 May 20:15:27 20:19:39 82° 257° (WSW) 20:23:53 437.475
Oscar 11 26 May 20:16:25 20:19:19 18° 65° (ENE) 20:22:13 145.826/435.025
AUBIESAT-1 26 May 20:26:41 20:30:20 29° 257° (WSW) 20:33:47 437.475
CUBEBUG 2 26 May 20:27:43 20:31:54 44° 73° (ENE) 20:35:58 437.445
ZACube-1 26 May 20:28:12 20:31:21 21° 67° (ENE) 20:34:27 437.345
DOVE 4 26 May 20:29:47 20:33:42 21° 267° (W) 20:37:34 437.250
M-CUBED/EXP-1 PRIME 26 May 20:32:51 20:36:06 21° 259° (W) 20:39:12 437.505
BEESAT 2 26 May 20:36:46 20:40:29 36° 51° (NE) 20:44:10 435.950
O/OREOS (USA 219) 26 May 20:37:41 20:41:34 29° 256° (WSW) 20:45:25 437.305
COMPASS 1 26 May 20:41:10 20:45:17 81° 257° (WSW) 20:49:29 437.405
AIST 1 26 May 20:43:00 20:46:21 22° 88° (E) 20:49:44
AAUSAT CUBESAT 2 26 May 20:44:47 20:48:53 88° 80° (E) 20:53:04 437.432
PRISM 26 May 20:50:22 20:54:15 36° 98° (E) 20:58:05 437.425
UWE-3 26 May 20:58:27 21:02:44 67° 76° (ENE) 21:06:57 435.000/436.395/437.385
HO-68 26 May 21:02:03 21:08:37 39° 262° (W) 21:15:13 435.675
FUNcube-1 26 May 21:05:47 21:09:52 49° 73° (ENE) 21:13:55 145.935
CINEMA 3 26 May 21:08:21 21:12:08 23° 266° (W) 21:15:49 145.822/145.860
STRAND 1 26 May 21:12:03 21:16:27 30° 294° (WNW) 21:20:51 437.568
BEESAT 3 26 May 21:13:37 21:17:28 51° 242° (WSW) 21:21:17 437.485
DELFI C3 26 May 21:23:54 21:27:38 42° 73° (ENE) 21:31:25 145.870
CANX-2 26 May 21:26:38 21:28:23 12° 270° (W) 21:30:08 2200.000
SEEDS 26 May 21:30:19 21:33:02 17° 268° (W) 21:35:48 437.485
RS-15 26 May 21:48:16 21:57:24 24° 348° (NNW) 22:06:50 29.354- 29.394
Oscar 11 26 May 21:51:04 21:55:08 41° 262° (W) 21:59:14 145.826/435.025
GONETS M04 26 May 21:54:19 22:02:53 60° 91° (E) 22:11:26
PHONESAT 2.4 26 May 21:59:25 22:01:12 14° 150° (SSE) 22:02:59 2401.200-2431.200
ZACube-1 26 May 22:03:34 22:07:26 34° 263° (W) 22:11:16 437.345
ISS 26 May 22:04:24 22:07:38 70° 142° (SE) 22:10:54 145.825
CUBEBUG 2 26 May 22:05:56 22:08:42 16° 267° (W) 22:11:27 437.445
DANDE 26 May 22:10:21 22:16:46 23° 62° (ENE) 22:22:54 436.750
ANTELSAT 26 May 22:13:03 22:15:39 16° 92° (E) 22:18:16 437.575/2403.000
VELOX 1 26 May 22:14:05 22:15:02 11° 60° (ENE) 22:15:59 145.980
BEESAT 2 26 May 22:15:07 22:18:06 20° 248° (WSW) 22:21:04 435.950
AIST 1 26 May 22:19:50 22:23:45 31° 284° (WNW) 22:27:43
HUMSAT D 26 May 22:20:05 22:24:10 87° 77° (ENE) 22:28:16 437.325/437.525
CUSAT 1 26 May 22:25:52 22:33:24 47° 72° (ENE) 22:39:46 437.405
PRISM 26 May 22:26:18 22:29:18 19° 294° (WNW) 22:32:18 437.425
Cosmos 2499 26 May 22:31:08 22:38:08 58° 91° (E) 22:45:39 435.465 / 435.565
AIST 2 26 May 22:37:40 22:41:40 44° 52° (NE) 22:45:37 435.215
UWE-3 26 May 22:38:53 22:39:36 10° 270° (W) 22:40:19 435.000/436.395/437.385
FUNcube-1 26 May 22:44:13 22:46:23 14° 269° (W) 22:48:32 145.935
AISAT 26 May 22:47:01 22:50:37 25° 67° (ENE) 22:54:14 437.250
UKube-1 26 May 23:00:32 23:03:52 22° 66° (ENE) 23:07:14 .
DELFI C3 26 May 23:00:36 23:02:44 14° 269° (W) 23:04:53 145.870
UNISAT 6 26 May 23:07:04 23:11:20 62° 101° (E) 23:15:39 437.425
QB50P2 26 May 23:08:07 23:09:23 11° 90° (E) 23:10:38 145.880/145.840
POLYITAN 1 26 May 23:10:27 23:11:50 11° 90° (E) 23:13:13 437.675
TIGRISAT 26 May 23:14:57 23:19:14 72° 102° (ESE) 23:23:34 435.000
ESTCUBE 1 26 May 23:20:16 23:24:46 76° 75° (ENE) 23:29:18 437.505/2401.250
NANOSAT C BR1 26 May 23:24:01 23:26:34 16° 92° (E) 23:29:07 145.865
PHONESAT 2.4 26 May 23:34:29 23:37:31 48° 165° (SSE) 23:40:33 2401.200-2431.200
ISS 26 May 23:41:42 23:44:21 22° 340° (NNW) 23:47:00 145.825
CUBEBUG 1 26 May 23:41:53 23:46:19 89° 79° (E) 23:50:48 437.445
DX 1 26 May 23:44:15 23:48:38 80° 76° (ENE) 23:53:03 434.975-435.025
VELOX 1 26 May 23:46:21 23:50:49 83° 258° (WSW) 23:55:19 145.980
ANTELSAT 26 May 23:48:30 23:52:36 45° 288° (WNW) 23:56:45 437.575/2403.000
50 SAT 26 May 23:51:12 23:54:45 56° 259° (W) 23:58:21 437.505
DANDE 26 May 23:52:10 00:00:41 85° 262° (W) 00:08:23 436.750
GONETS M04 26 May 23:52:39 00:00:11 31° 291° (WNW) 00:07:45
DUCHIFAT 1 27 May 00:01:58 00:05:54 39° 98° (E) 00:09:48 145.980
RS-15 27 May 00:05:16 00:15:27 29° 24° (NNE) 00:25:45 29.354- 29.394
CUSAT 1 27 May 00:08:24 00:15:15 35° 274° (W) 00:21:07 437.405
SPROUT 27 May 00:13:13 00:17:31 76° 74° (ENE) 00:21:48 437.525
AIST 2 27 May 00:17:00 00:19:49 18° 249° (WSW) 00:22:38 435.215
SO-50 27 May 00:20:06 00:24:35 37° 115° (ESE) 00:29:05 436.795
AISAT 27 May 00:22:56 00:26:57 32° 263° (W) 00:30:58 437.250
BUGSAT 1 27 May 00:24:11 00:27:49 31° 97° (E) 00:31:24 437.445
Cosmos 2499 27 May 00:25:48 00:31:47 27° 293° (WNW) 00:38:07 435.465 / 435.565
UKube-1 27 May 00:35:47 00:39:44 34° 263° (W) 00:43:41 .
POPSAT HIP 1 27 May 00:38:55 00:43:05 70° 286° (WNW) 00:47:15 437.405
QB50P1 27 May 00:39:25 00:43:35 68° 286° (WNW) 00:47:45 145.935-145.965
TISAT 1 27 May 00:41:00 00:44:58 42° 72° (ENE) 00:48:59 437.305
QB50P2 27 May 00:41:25 00:45:34 61° 286° (WNW) 00:49:42 145.880/145.840
POLYITAN 1 27 May 00:43:52 00:48:01 59° 286° (WNW) 00:52:08 437.675
UNISAT 6 27 May 00:45:39 00:47:33 13° 297° (WNW) 00:49:28 437.425
TIGRISAT 27 May 00:54:06 00:55:21 11° 298° (WNW) 00:56:36 435.000
NANOSAT C BR1 27 May 00:58:32 01:02:31 43° 288° (WNW) 01:06:27 145.865
SWISSCUBE 27 May 00:59:05 01:02:01 16° 62° (ENE) 01:04:57 437.505
ESTCUBE 1 27 May 01:01:37 01:02:06 10° 271° (W) 01:02:35 437.505/2401.250
ITUPSAT 1 27 May 01:04:44 01:07:42 17° 62° (ENE) 01:10:40 437.325
PHONESAT 2.4 27 May 01:11:01 01:14:10 74° 180° (S) 01:17:17 2401.200-2431.200
ISS 27 May 01:19:52 01:21:41 14° 1° (N) 01:23:30 145.825
JAS-2 27 May 01:26:27 01:33:50 56° 99° (E) 01:40:24 435.910
BEESAT 27 May 01:27:38 01:31:38 28° 67° (ENE) 01:35:39 436.000
DANDE 27 May 01:37:04 01:42:13 18° 282° (WNW) 01:47:10 436.750
DUCHIFAT 1 27 May 01:38:28 01:41:18 18° 295° (WNW) 01:44:08 145.980
Oscar 19 27 May 01:42:10 01:46:49 33° 97° (E) 01:51:24 437.125/150
Gurwin Techsat 1B 27 May 01:58:42 02:02:35 20° 92° (E) 02:06:27 435.225
BUGSAT 1 27 May 02:00:00 02:03:00 20° 293° (WNW) 02:05:58 437.445
SO-50 27 May 02:00:44 02:05:07 31° 313° (NW) 02:09:30 436.795
YUBILEINY 27 May 02:14:54 02:21:52 25° 66° (ENE) 02:28:47 435.215
TISAT 1 27 May 02:18:08 02:20:49 16° 267° (W) 02:23:31 437.305
RS-15 27 May 02:18:22 02:30:42 71° 53° (NE) 02:42:59 29.354- 29.394
ITAMSAT 1 27 May 02:23:48 02:26:01 13° 90° (E) 02:28:12 435.822/435.867
SWISSCUBE 27 May 02:34:41 02:39:21 57° 259° (W) 02:44:03 437.505
KKS-1 27 May 02:37:22 02:40:21 18° 64° (ENE) 02:43:21 437.445
ITUPSAT 1 27 May 02:40:24 02:45:04 57° 259° (W) 02:49:47 437.325
MOZHAYETS 4 27 May 02:47:09 02:49:58 16° 64° (ENE) 02:52:48
PHONESAT 2.4 27 May 02:47:49 02:50:46 38° 198° (SSW) 02:53:41 2401.200-2431.200
AO-7 27 May 02:48:41 02:51:12 11° 86° (E) 02:53:43 29.400- 29.500
ISS 27 May 02:56:17 02:59:00 23° 21° (NNE) 03:01:42 145.825
BEESAT 27 May 03:05:05 03:09:18 32° 263° (W) 03:13:34 436.000
Cosmos 2491 27 May 03:10:36 03:17:34 27° 81° (E) 03:24:31 435.465 / 435.565
JAS-2 27 May 03:12:01 03:18:20 30° 299° (WNW) 03:24:10 435.910
STARS 27 May 03:14:42 03:18:06 22° 66° (ENE) 03:21:30 437.465
Oscar 19 27 May 03:21:34 03:26:03 31° 293° (WNW) 03:30:29 437.125/150
Gurwin Techsat 1B 27 May 03:37:40 03:42:49 51° 289° (WNW) 03:47:56 435.225
Cosmos 2504 27 May 03:45:05 03:51:59 27° 68° (ENE) 03:59:06 435.465 / 435.565
ITAMSAT 1 27 May 04:00:49 04:06:03 78° 286° (WNW) 04:11:16 435.822/435.867
CUBESAT XI-V 27 May 04:10:42 04:13:17 15° 62° (ENE) 04:15:51 437.345
YUBILEINY 27 May 04:10:46 04:19:29 72° 266° (W) 04:28:11 435.215
KKS-1 27 May 04:12:15 04:16:34 46° 261° (W) 04:20:53 437.445
MOZHAYETS 4 27 May 04:22:16 04:26:42 52° 260° (W) 04:31:11
RS-15 27 May 04:31:44 04:42:23 37° 255° (WSW) 04:52:59 29.354- 29.394
ISS 27 May 04:32:26 04:35:40 62° 219° (SW) 04:38:53 145.825
AO-7 27 May 04:37:04 04:45:25 68° 105° (ESE) 04:53:44 29.400- 29.500
STARS 27 May 04:50:13 04:54:15 35° 262° (W) 04:58:19 437.465
Cosmos 2491 27 May 05:04:54 05:13:39 66° 281° (W) 05:22:28 435.465 / 435.565
HORYU 2 27 May 05:29:34 05:33:56 57° 101° (E) 05:38:18 437.375
Cosmos 2504 27 May 05:37:37 05:45:57 69° 267° (W) 05:54:42 435.465 / 435.565
ITAMSAT 1 27 May 05:43:26 05:44:38 11° 303° (WNW) 05:45:50 435.822/435.867
CUBESAT XI-V 27 May 05:45:30 05:50:06 63° 259° (W) 05:54:47 437.345
AO-85 27 May 05:45:40 05:50:34 35° 114° (ESE) 05:55:25 145.980
YUBILEINY 27 May 06:11:11 06:14:35 13° 286° (WNW) 06:18:00 435.215
NOAA 18 27 May 06:17:41 06:22:20 28° 96° (E) 06:26:59 137.9125
NOAA 15 27 May 06:21:49 06:26:43 36° 97° (E) 06:31:33 137.62
Cubesat XI-IV 27 May 06:24:33 06:29:03 27° 95° (E) 06:33:32 437.490
AO-7 27 May 06:30:41 06:37:35 30° 304° (NW) 06:44:29 29.400- 29.500
STRAND 1 27 May 06:48:37 06:53:30 50° 71° (ENE) 06:58:26 437.568
DOVE 4 27 May 06:53:16 06:53:43 10° 88° (E) 06:54:09 437.250
LilacSat-2 27 May 06:57:11 07:00:54 52° 100° (E) 07:04:35 437.200
HORYU 2 27 May 07:07:36 07:10:02 15° 297° (WNW) 07:12:27 437.375
BRITE-PL 27 May 07:08:05 07:13:17 83° 103° (ESE) 07:18:01 437.365/2234.400
Cosmos 2491 27 May 07:08:40 07:12:28 13° 304° (NW) 07:16:17 435.465 / 435.565
CUTE-I 27 May 07:10:27 07:15:49 71° 103° (ESE) 07:21:10 437.470
AO-85 27 May 07:25:58 07:31:03 38° 311° (NW) 07:36:01 145.980
Cosmos 2504 27 May 07:34:47 07:37:49 12° 285° (WNW) 07:40:55 435.465 / 435.565
GOMX 1 27 May 07:35:52 07:40:37 74° 102° (ESE) 07:45:00 467.674
PRISM 27 May 07:40:03 07:43:34 27° 68° (ENE) 07:47:06 437.425
NOAA 18 27 May 07:58:00 08:03:04 40° 292° (WNW) 08:08:08 137.9125
CUTE 1.7 + AOD 2 27 May 08:01:13 08:04:03 17° 92° (E) 08:06:52 437.475
NOAA 15 27 May 08:01:49 08:06:21 29° 294° (WNW) 08:10:51 137.62
Cubesat XI-IV 27 May 08:04:15 08:09:12 40° 291° (WNW) 08:14:10 437.490
GONETS M04 27 May 08:04:50 08:12:11 29° 68° (ENE) 08:19:27
AUBIESAT-1 27 May 08:06:36 08:07:50 12° 98° (E) 08:09:05 437.475
M-CUBED/EXP-1 PRIME 27 May 08:11:55 08:14:10 17° 100° (E) 08:16:24 437.505
Cosmos 2499 27 May 08:21:32 08:28:05 23° 65° (ENE) 08:34:46 435.465 / 435.565
COMPASS 1 27 May 08:25:01 08:27:38 16° 92° (E) 08:30:14 437.405
AIST 1 27 May 08:26:07 08:30:27 62° 80° (E) 08:34:42
DOVE 4 27 May 08:27:36 08:31:59 66° 285° (WNW) 08:36:09 437.250
AAUSAT CUBESAT 2 27 May 08:28:27 08:30:37 14° 91° (E) 08:32:47 437.432
HO-68 27 May 08:28:51 08:35:36 42° 99° (E) 08:42:19 435.675
STRAND 1 27 May 08:29:20 08:32:57 19° 267° (W) 08:36:36 437.568
LilacSat-2 27 May 08:33:27 08:34:45 12° 296° (WNW) 08:36:03 437.200
BRITE-PL 27 May 08:48:42 08:50:53 13° 302° (WNW) 08:52:59 437.365/2234.400
UWE-3 27 May 08:49:38 08:51:23 12° 91° (E) 08:53:09 435.000/436.395/437.385
PCSat 27 May 08:50:20 08:53:44 17° 105° (ESE) 08:57:09 145.827
SO-50 27 May 08:51:23 08:55:44 35° 48° (NE) 08:59:55 436.795
CUTE-I 27 May 08:52:01 08:55:16 16° 300° (WNW) 08:58:30 437.470
CINEMA 3 27 May 09:01:49 09:06:01 85° 104° (ESE) 09:10:09 145.822/145.860
CANX-2 27 May 09:08:28 09:12:45 73° 285° (WNW) 09:17:02 2200.000
O/OREOS (USA 219) 27 May 09:10:47 09:14:43 29° 104° (ESE) 09:18:40 437.305
SEEDS 27 May 09:12:09 09:16:25 78° 101° (E) 09:20:41 437.485
ANTELSAT 27 May 09:12:39 09:15:08 15° 64° (ENE) 09:17:36 437.575/2403.000
PRISM 27 May 09:15:24 09:18:49 25° 264° (W) 09:22:16 437.425
GOMX 1 27 May 09:16:09 09:17:57 12° 301° (WNW) 09:19:44 467.674
CUTE 1.7 + AOD 2 27 May 09:36:02 09:40:04 41° 288° (WNW) 09:44:05 437.475
Oscar 11 27 May 09:37:59 09:41:55 33° 97° (E) 09:45:51 145.826/435.025
AUBIESAT-1 27 May 09:39:30 09:42:32 34° 293° (WNW) 09:45:34 437.475
M-CUBED/EXP-1 PRIME 27 May 09:46:06 09:48:46 23° 296° (WNW) 09:51:24 437.505
ZACube-1 27 May 09:51:08 09:55:06 40° 98° (E) 09:59:07 437.345
CUBEBUG 2 27 May 09:54:28 09:58:38 81° 284° (WNW) 10:02:51 437.445
COMPASS 1 27 May 09:59:23 10:03:23 43° 288° (WNW) 10:07:23 437.405
GONETS M04 27 May 10:01:02 10:09:33 62° 269° (W) 10:18:03
AAUSAT CUBESAT 2 27 May 10:02:19 10:06:23 49° 287° (WNW) 10:10:26 437.432
HUMSAT D 27 May 10:04:45 10:06:53 14° 91° (E) 10:09:01 437.325/437.525
UNISAT 6 27 May 10:05:53 10:10:10 55° 73° (ENE) 10:14:22 437.425
AIST 1 27 May 10:06:20 10:07:25 11° 277° (W) 10:08:29
Cosmos 2499 27 May 10:13:29 10:22:05 80° 265° (W) 10:30:58 435.465 / 435.565
TIGRISAT 27 May 10:13:33 10:17:52 63° 75° (ENE) 10:22:07 435.000
HO-68 27 May 10:16:43 10:23:13 39° 297° (WNW) 10:29:43 435.675
NANOSAT C BR1 27 May 10:17:13 10:19:11 13° 63° (ENE) 10:21:10 145.865
UWE-3 27 May 10:24:06 10:28:11 54° 286° (WNW) 10:32:17 435.000/436.395/437.385
FUNcube-1 27 May 10:29:21 10:33:32 77° 283° (WNW) 10:37:46 145.935
PCSat 27 May 10:31:09 10:36:32 67° 302° (WNW) 10:41:58 145.827
SO-50 27 May 10:32:05 10:36:06 29° 247° (WSW) 10:39:58 436.795
DELFI C3 27 May 10:35:51 10:39:54 72° 102° (ESE) 10:43:54 145.870
ANTELSAT 27 May 10:47:11 10:51:26 51° 260° (W) 10:55:39 437.575/2403.000
O/OREOS (USA 219) 27 May 10:50:08 10:54:04 28° 301° (WNW) 10:58:01 437.305
SEEDS 27 May 10:50:54 10:51:29 10° 298° (WNW) 10:52:05 437.485
DUCHIFAT 1 27 May 10:54:02 10:57:42 30° 69° (ENE) 11:01:23 145.980
BEESAT 3 27 May 11:04:50 11:07:58 23° 113° (ESE) 11:11:09 437.485
ESTCUBE 1 27 May 11:13:55 11:16:41 16° 92° (E) 11:19:27 437.505/2401.250
BUGSAT 1 27 May 11:14:08 11:17:32 24° 68° (ENE) 11:20:54 437.445
Oscar 11 27 May 11:14:30 11:17:52 22° 293° (WNW) 11:21:14 145.826/435.025
DANDE 27 May 11:20:31 11:23:56 16° 77° (ENE) 11:27:48 436.750
50 SAT 27 May 11:22:11 11:23:34 12° 91° (E) 11:24:58 437.505
CUSAT 1 27 May 11:26:56 11:32:48 44° 89° (E) 11:39:54 437.405
ZACube-1 27 May 11:28:20 11:31:06 17° 294° (WNW) 11:33:54 437.345
POPSAT HIP 1 27 May 11:31:04 11:35:19 87° 76° (ENE) 11:39:34 437.405
QB50P1 27 May 11:31:30 11:35:46 89° 63° (ENE) 11:40:01 145.935-145.965
CUBEBUG 1 27 May 11:31:38 11:34:23 16° 92° (E) 11:37:06 437.445
QB50P2 27 May 11:33:41 11:37:56 82° 255° (WSW) 11:42:11 145.880/145.840
DX 1 27 May 11:34:01 11:36:11 13° 91° (E) 11:38:19 434.975-435.025
POLYITAN 1 27 May 11:36:10 11:40:24 80° 258° (WSW) 11:44:39 437.675
VELOX 1 27 May 11:37:21 11:40:25 18° 93° (E) 11:43:27 145.980
JAS-2 27 May 11:37:53 11:44:05 30° 60° (ENE) 11:50:33 435.910
HUMSAT D 27 May 11:38:46 11:42:47 49° 287° (WNW) 11:46:49 437.325/437.525
UNISAT 6 27 May 11:45:08 11:47:12 13° 269° (W) 11:49:15 437.425
NANOSAT C BR1 27 May 11:50:16 11:54:26 58° 259° (W) 11:58:37 145.865
TIGRISAT 27 May 11:53:33 11:54:56 11° 270° (W) 11:56:20 435.000
SPROUT 27 May 12:00:58 12:02:49 13° 90° (E) 12:04:40 437.525
BEESAT 2 27 May 12:06:01 12:09:57 64° 119° (ESE) 12:13:54 435.950
Cosmos 2499 27 May 12:09:12 12:13:53 16° 283° (WNW) 12:18:38 435.465 / 435.565
AISAT 27 May 12:12:29 12:16:45 45° 99° (E) 12:20:58 437.250
PCSat 27 May 12:18:26 12:21:00 13° 322° (NW) 12:23:35 145.827
UKube-1 27 May 12:22:24 12:26:26 37° 98° (E) 12:30:25 .
DUCHIFAT 1 27 May 12:30:03 12:33:24 23° 265° (W) 12:36:46 145.980
BEESAT 3 27 May 12:41:59 12:45:32 31° 310° (NW) 12:49:06 437.485
BUGSAT 1 27 May 12:49:07 12:52:47 29° 263° (W) 12:56:26 437.445
ESTCUBE 1 27 May 12:49:22 12:53:46 50° 288° (WNW) 12:58:09 437.505/2401.250
50 SAT 27 May 12:53:59 12:57:33 45° 287° (WNW) 13:01:06 437.505
Oscar 19 27 May 12:58:54 13:03:53 49° 71° (ENE) 13:08:54 437.125/150
DANDE 27 May 13:00:03 13:05:26 76° 281° (W) 13:12:38 436.750
CUBEBUG 1 27 May 13:06:43 13:10:54 45° 288° (WNW) 13:15:02 437.445
DX 1 27 May 13:08:26 13:12:42 54° 287° (WNW) 13:16:55 434.975-435.025
CUSAT 1 27 May 13:09:10 13:15:03 36° 292° (WNW) 13:22:02 437.405
VELOX 1 27 May 13:12:53 13:17:03 41° 289° (WNW) 13:21:11 145.980
Gurwin Techsat 1B 27 May 13:19:40 13:24:21 33° 67° (ENE) 13:29:04 435.225
JAS-2 27 May 13:21:14 13:28:27 64° 260° (W) 13:36:15 435.910
Cosmos 2491 27 May 13:21:26 13:24:59 13° 56° (NE) 13:28:30 435.465 / 435.565
SPROUT 27 May 13:34:57 13:39:07 55° 286° (WNW) 13:43:16 437.525
ITAMSAT 1 27 May 13:41:15 13:45:04 21° 63° (ENE) 13:48:54 435.822/435.867
BEESAT 2 27 May 13:45:48 13:48:12 15° 318° (NW) 13:50:36 435.950
AO-7 27 May 13:46:44 13:52:32 22° 51° (NE) 13:58:22 29.400- 29.500
AISAT 27 May 13:49:56 13:52:53 18° 296° (WNW) 13:55:48 437.250
UKube-1 27 May 13:59:03 14:02:14 20° 295° (WNW) 14:05:24 .
TISAT 1 27 May 14:00:00 14:04:11 75° 102° (ESE) 14:08:20 437.305
AIST 2 27 May 14:13:06 14:17:13 90° 118° (ESE) 14:21:23 435.215
AO-85 27 May 14:17:47 14:21:57 29° 46° (NE) 14:25:45 145.980
SWISSCUBE 27 May 14:34:45 14:39:09 35° 97° (E) 14:43:31 437.505
Oscar 19 27 May 14:39:38 14:43:27 21° 267° (W) 14:47:18 437.125/150
ITUPSAT 1 27 May 14:40:46 14:45:11 35° 98° (E) 14:49:35 437.325
DANDE 27 May 14:47:07 14:50:01 13° 306° (NW) 14:53:14 436.750
Gurwin Techsat 1B 27 May 14:59:34 15:04:15 32° 264° (W) 15:08:59 435.225
BEESAT 27 May 15:04:15 15:09:01 63° 101° (ESE) 15:13:46 436.000
JAS-2 27 May 15:13:31 15:14:58 11° 279° (W) 15:16:26 435.910
Cosmos 2491 27 May 15:15:06 15:23:50 65° 79° (ENE) 15:32:27 435.465 / 435.565
YUBILEINY 27 May 15:16:59 15:23:56 28° 82° (E) 15:30:53 435.215
ITAMSAT 1 27 May 15:19:10 15:24:10 50° 260° (W) 15:29:13 435.822/435.867
AO-7 27 May 15:35:55 15:44:13 88° 69° (ENE) 15:52:35 29.400- 29.500
TISAT 1 27 May 15:38:42 15:39:13 10° 299° (WNW) 15:39:44 437.305
AIST 2 27 May 15:54:25 15:56:19 13° 321° (NW) 15:58:13 435.215
AO-85 27 May 15:58:18 16:02:26 33° 247° (WSW) 16:06:13 145.980
KKS-1 27 May 16:03:07 16:07:05 31° 97° (E) 16:11:00 437.445
SWISSCUBE 27 May 16:12:50 16:16:46 26° 294° (WNW) 16:20:41 437.505
MOZHAYETS 4 27 May 16:17:04 16:21:19 35° 97° (E) 16:25:33
ITUPSAT 1 27 May 16:18:55 16:22:50 25° 294° (WNW) 16:26:45 437.325
Cosmos 2504 27 May 16:26:44 16:31:12 18° 78° (ENE) 16:35:47 435.465 / 435.565
HORYU 2 27 May 16:27:31 16:31:49 54° 73° (ENE) 16:36:08 437.375
STARS 27 May 16:39:07 16:43:13 39° 98° (E) 16:47:18 437.465
RS-15 27 May 16:42:23 16:52:37 42° 107° (ESE) 17:03:20 29.354- 29.394
BRITE-PL 27 May 16:42:26 16:45:25 15° 60° (ENE) 16:48:24 437.365/2234.400
BEESAT 27 May 16:43:32 16:46:17 15° 298° (WNW) 16:49:01 436.000
CUTE-I 27 May 16:55:15 16:58:23 16° 60° (ENE) 17:01:34 437.470
GOMX 1 27 May 17:08:58 17:10:51 12° 59° (ENE) 17:12:43 467.674
YUBILEINY 27 May 17:11:28 17:20:03 63° 282° (WNW) 17:28:41 435.215
Cosmos 2491 27 May 17:13:02 17:19:56 27° 279° (W) 17:26:48 435.465 / 435.565
AO-7 27 May 17:32:33 17:37:57 19° 269° (W) 17:43:25 29.400- 29.500
PCSat 27 May 17:36:32 17:40:15 18° 42° (NE) 17:43:57 145.827
LilacSat-2 27 May 17:39:35 17:42:47 26° 70° (ENE) 17:45:59 437.200
KKS-1 27 May 17:39:55 17:43:30 24° 293° (WNW) 17:47:04 437.445
NOAA 15 27 May 17:41:49 17:47:01 59° 72° (ENE) 17:52:16 137.62
CUBESAT XI-V 27 May 17:42:07 17:46:21 32° 96° (E) 17:50:32 437.345
NOAA 18 27 May 17:43:56 17:49:14 54° 70° (ENE) 17:54:33 137.9125
Cubesat XI-IV 27 May 17:46:33 17:51:33 44° 70° (ENE) 17:56:36 437.490
MOZHAYETS 4 27 May 17:54:36 17:58:18 24° 293° (WNW) 18:01:59
DOVE 4 27 May 17:56:59 17:59:58 16° 63° (ENE) 18:02:52 437.250
HORYU 2 27 May 18:06:22 18:08:41 14° 268° (W) 18:11:02 437.375
STARS 27 May 18:16:10 18:19:18 20° 295° (WNW) 18:22:26 437.465
Cosmos 2504 27 May 18:16:16 18:23:28 79° 279° (W) 18:31:08 435.465 / 435.565
BRITE-PL 27 May 18:17:25 18:23:04 89° 258° (WSW) 18:28:49 437.365/2234.400
CUTE-I 27 May 18:32:33 18:37:50 71° 257° (WSW) 18:43:09 437.470
